Погода в Триполи

Ливия     32°44′26″N   13°12′55″E
темп.,
°C
ветер,
м/с
пор.,
м/с
влажн.,
%
обл.,
%
осадки,
мм/ч
давл.,
гПа
погр.,
м
10 августа, ср
ср1023:00+27св34670 0.0 1016208
02:00+26ююв33780 0.0 1014120
05:00+25с11810 0.0 1014187
08:00+27в01700 0.0 1015337
11:00+31с44420 0.0 10151342
14:00+32с55370 0.0 10151390
17:00+31с55420 0.0 10141144
20:00+28ссв34550 0.0 1014365
11 августа, чт
чт1123:00+27всв33640 0.0 1015201
02:00+25юв33700 0.0 1014156
05:00+24юв23720 0.0 101388
08:00+26св01590 0.0 1014207
11:00+30ссв33420 0.0 10151071
14:00+32с54400 0.0 10141182
17:00+32ссв55430 0.0 10131008
20:00+28ссв44570 0.0 1013499
12 августа, пт
пт1223:00+27вюв33650 0.0 1013189
02:00+25в12710 0.0 1012129
05:00+24св11730 0.0 1012143
08:00+27с12640 0.0 1013341
11:00+31ссз44440 0.0 10131236
14:00+32ссз66430 0.0 10131257
17:00+31с66460 0.0 10131098
20:00+28ссв45570 0.0 1013388
13 августа, сб
сб1323:00+27св34640 0.0 1014238
02:00+25вюв23680 0.0 1013178
05:00+24ююз11740 0.0 1014149
08:00+26зсз12640 0.0 1015333
11:00+30с33450 0.0 10151268
14:00+32с54370 0.0 10151375
17:00+32ссв54370 0.0 10141063
20:00+28всв44530 0.0 1014242
14 августа, вс
вс1423:00+26вюв34650 0.0 1014127
02:00+26ю34560 0.0 101372
05:00+25ю22480 0.0 101333
08:00+28юз23350 0.0 1013130
11:00+35зюз33200 0.0 1013812
14:00+38сз56180 0.0 10111318
17:00+37ссз68190 0.0 1010856
20:00+31ссв46360 0.0 1011141